This is the latest recevied weather packets stored in our database for station/object N4QD-13. If no packets are shown the sender has not sent any weather packets the latest 10 day(s).
| Time | Temp. | Humidity | Pressure | Rain* | Wind** | Luminosity | Snow |
|---|---|---|---|---|---|---|---|
| 1777927475 | 23.89° C | 46% | 1011.5 hPa | 0 mm | - | 543 W/m² | - |
| 1777927174 | 23.33° C | 47% | 1011.6 hPa | 0 mm | - | 550 W/m² | - |
| 1777926871 | 23.33° C | 45% | 1011.8 hPa | 0 mm | - | 621 W/m² | - |
| 1777926567 | 23.33° C | 46% | 1011.5 hPa | 0 mm | - | 638 W/m² | - |
| 1777926264 | 23.33° C | 45% | 1011.6 hPa | 0 mm | - | 662 W/m² | - |
| 1777925960 | 23.89° C | 46% | 1011.7 hPa | 0 mm | - | 675 W/m² | - |
| 1777925658 | 23.89° C | 47% | 1011.6 hPa | 0 mm | - | 699 W/m² | - |
| 1777925355 | 23.33° C | 45% | 1011.7 hPa | 0 mm | - | 734 W/m² | - |
| 1777925052 | 23.33° C | 46% | 1011.9 hPa | 0 mm | - | 767 W/m² | - |
| 1777924748 | 23.33° C | 47% | 1011.8 hPa | 0 mm | - | 802 W/m² | - |
| 1777924444 | 22.78° C | 46% | 1012.2 hPa | 0 mm | - | 787 W/m² | - |
| 1777924141 | 22.78° C | 47% | 1012.4 hPa | 0 mm | - | 501 W/m² | - |
| 1777923837 | 22.22° C | 47% | 1012.1 hPa | 0 mm | - | 703 W/m² | - |
| 1777923533 | 22.78° C | 48% | 1012.4 hPa | 0 mm | - | 313 W/m² | - |
| 1777923230 | 22.22° C | 48% | 1012.3 hPa | 0 mm | - | 760 W/m² | - |
| 1777922929 | 22.22° C | 48% | 1012.6 hPa | 0 mm | - | 462 W/m² | - |
| 1777922626 | 21.67° C | 48% | 1012.6 hPa | 0 mm | - | 497 W/m² | - |
| 1777922324 | 21.67° C | 48% | 1012.5 hPa | 0 mm | - | 377 W/m² | - |
| 1777922022 | 21.67° C | 47% | 1012.9 hPa | 0 mm | - | 435 W/m² | - |
| 1777921717 | 21.67° C | 48% | 1013 hPa | 0 mm | - | 463 W/m² | - |
| 1777921413 | 21.67° C | 48% | 1012.9 hPa | 0 mm | - | 413 W/m² | - |
| 1777921110 | 21.67° C | 47% | 1012.9 hPa | 0 mm | - | 405 W/m² | - |
| 1777920807 | 21.67° C | 47% | 1012.9 hPa | 0 mm | - | 507 W/m² | - |
| 1777920503 | 21.67° C | 46% | 1012.8 hPa | 0 mm | - | 554 W/m² | - |
| 1777920199 | 21.67° C | 47% | 1013 hPa | 0 mm | - | 498 W/m² | - |
* Rain latest hour (hover to see other rain measurements)
** Current wind speed in m/s (hover to see current wind gust speed)